CZ-6A DEB, 54622

Orbit data source: Space-Track

CZ-6A DEB, 54622 is space debris in SSO originally from a launch on Fri, 11 Nov 2022 UTC launched from the Taiyaun Space Center, China (TSC). Debris objects in space refer to the collection of defunct objects orbiting the Earth. Examples of debris include non-operational satellites, rocket bodies, and fragments generated from explosions, collisions, or faulty payload assembly.

Loading next visibility...
Identifier
54622, 2022-151NY
Orbit
SSO
Country
Flag of CNCN / PRC
Related business
Manufacturer
SAST
Mission
Spacecraft
Bus & Motor
Unknown
Mass
Unknown
Launch date (UTC)
2022-11-11 (4 years ago)
Launch vehicle
Unknown
Launch site
Taiyaun Space Center, China (TSC)
Object type
Payload
Rocket body
Debris
Shape & HBR
Unknown shape, 0.1 m
Radar Cross Section
Medium (>0.1 m² and <1 m²)

Expand to show TLE details & history
Last TLE update: 15 hours ago

TLE from 15 hours ago
0 CZ-6A DEB
1 54622U 22151NY  26206.48156432  .00002285  00000-0  10983-2 0  9999
2 54622  98.8117 211.5275 0040008 205.2571 154.6650 14.19420431189691
Epoch: 2026-07-25T11:33Z
TLE epoch observation values (Epoch: 2026-07-25T11:33:27.157Z)
Latitude
0.00005°
Longitude
94.97112°
Altitude
856.305 km
Speed
7.411 km/s
True Right ascension
14h 06m 06s
True Declination
0° 00' 00"
Sunlit
Object was in daylight at epoch
Visualization orbit readout
Latitude
Unknown
Longitude
Unknown
Altitude
Unknown
Speed
Unknown
Apparent Right ascension
Unknown
Apparent Declination
Unknown
Sunlit
N/A
Visualization observer readout
Local Sidereal Time
16:11:34
Azimuth
Unknown
Elevation
Unknown
Doppler factor
Unknown
Orbital elements
Apogee altitude
853.294 km
Perigee altitude
795.662 km
Semi-major axis
7,202.615 km
Eccentricity
0.004
Inclination
98.8117°
RAAN
211.5275°
Arg. of periapsis
205.2571°
True anomaly
154.8603°
Mean anomaly
154.665°
Eccentric anomaly
154.76274°
Mean motion
3.55065 °/min
Orbital period
101.39 mins
BSTAR
0.0010983
Loading maneuver chart data...
Computing Atmospheric mass density...
Loading historical data...
Loading historical data...
Loading historical data...
Loading historical data...
Loading historical data...
Loading historical data...
Loading historical data...

Documentation

Showing up to 5 results
|